Esler Regional Airport
KESF : now visible

Airfield :











YOU CAN JOIN US ON...

 
LOGIN :

Register | Disclaimer

   EN    FR    IT 

 









Legend :    VFR   Marginal VFR   IFR   Intensive IFR   Very Intensive IFR
Visi :
Ceiling :
>= 8 km
>= 3000ft
5 to 8 km
1000 to 3000 ft
1500m to 5 km
500 to 1000 ft
800 to 1500m
200 to 500 ft
< 800m
< 200 ft
Symbols :   Thunderstorms  Fog  Heavy snow  Heavy precipitations  Wind > 20 kt






- Airport Elevation : 112 ft


KESF - Esler Regional

CURRENT METAR :
  • 090453Z AUTO 23005KT 5SM BR CLR 23/22 A2984 RMK AO2 SLP103 T02330222 $

EXPIRED METARs :
  • 090353Z AUTO 23007KT 6SM BR CLR 24/22 A2985 RMK AO2 SLP106 T02440222 $
  • 090253Z AUTO 21006KT 5SM BR CLR 24/22 A2984 RMK AO2 SLP101 T02440222 53009 $

TAF N/A



MET'MAP, your aeronautical weather chart ! - Copyright ORBIFLY December 2007 - Disclaimer

ORBIFLY MET'MAP TEAM :

Programming & Development : Alexandra Zaïnal
Concept & original design : Baudouin d'Aumeries
Assistance for programming : Marc-Olivier Méhu
Technical & hardware support : Manuel Goepfert

Contact : metmap@orbifly.com




SOURCES & CREDITS :

   NOAA       Earth
Advisory